Regional Weather Roundup
Issued by NWS Bismarck, ND

Home | Current Version | Previous Version | Text Only | Print | Product List | Glossary On
Versions: 1 2 3 4 5 6 7 8 9 10 11 12 13 14 15 16 17 18 19 20 21 22 23 24 25 26 27 28 29 30 31 32 33 34 35 36 37 38 39 40 41 42 43 44 45 46 47 48 49 50
000
ASUS43 KBIS 040002
RWRBIS

NWR BROADCAST TEXT
NATIONAL WEATHER SERVICE BISMARCK ND
700 PM CDT THU SEP 03 2015

NOTE: "FAIR" INDICATES FEW OR NO CLOUDS BELOW 12,000 FEET WITH NO
SIGNIFICANT WEATHER AND/OR OBSTRUCTIONS TO VISIBILITY.


CITY           SKY/WX    TMP DP  RH WIND       PRES   REMARKS
WILLISTON      MOSUNNY   82  53  36 N16       29.72S
MINOT          SUNNY     86  69  56 NW14      29.64S HX  90
MINOT AFB      NOT AVBL
BISMARCK       PTSUNNY   93  56  28 S15       29.66R HX  91
DICKINSON      MOSUNNY   88  54  31 N6        29.70S
GARRISON         N/A     94  55  26 CALM      29.65R HX  92
HETTINGER ARPT MOSUNNY   91  47  21 W5        29.72S
JAMESTOWN      SUNNY     86  64  47 S10       29.71R
HAZEN          FAIR      91  63  38 N8        29.66R HX  92
OAKES            N/A     90  86  89 SE10      29.72S HX 119
STANLEY        FAIR      79  70  73 N9        29.72S
$$

CITY           SKY/WX    TMP DP  RH WIND       PRES   REMARKS
GRAND FORKS    MOSUNNY   89  71  55 SE22G29   29.69S HX  95
GRAND FORKS AF MOSUNNY   89  73  57 SE14      29.69S HX  96
DEVILS LAKE    SUNNY     90  66  45 SE14      29.65S HX  92
FARGO          CLEAR     89  73  59 SE17G26   29.72F HX  97
CAVALIER       FAIR      90  72  55 S14G24    29.66S HX  96
GRAFTON        FAIR      90  72  55 SE18G28   29.68S HX  96
GWINNER          N/A     90  90 100 SE15      29.73S HX 129
LANGDON        FAIR      90  70  51 S17       29.69R HX  95
$$

CITY           SKY/WX    TMP DP  RH WIND       PRES   REMARKS
ABERDEEN       SUNNY     88  71  57 SE9       29.72R HX  94
MOBRIDGE       CLOUDY    83  61  47 SE6       29.67R
BUFFALO          N/A     85  49  28 N3        29.68F
RAPID CITY     MOSUNNY   87  55  33 NW14      29.73R
GLASGOW        MOSUNNY   77  36  22 NE21      29.79S
SIDNEY         MOSUNNY   82  50  32 N9          N/A
WOLF POINT     PTSUNNY   81  42  25 N24       29.76S
GLENDIVE       PTSUNNY   82  46  28 N14       29.74S
MILES CITY     MOSUNNY   85  44  23 NE14      29.71F
BAKER          PTSUNNY   88  46  23 NE7       29.74S
$$

CITY           SKY/WX    TMP DP  RH WIND       PRES   REMARKS
BILLINGS       CLOUDY    76  39  26 NE14      29.78F
GREAT FALLS    RAIN      52  47  83 NW7       29.94R
$$




USA.gov is the U.S. government's official web portal to all federal, state and local government web resources and services.